Location: Lane
(33.5226°N, 79.8788°W)
Time: 03:16:12
(UTC+00:00)

Tiros 1 despin weight - Pass Details

Date: 08 October 2022
Orbit: 590 x 637 km, 48.2° (Epoch: 30 November)

Event Time Altitude Azimuth Distance (km) Brightness Sun altitude
Rises 17:52:06 0° 220° (SW) 2,802 ? 49.0°
Reaches altitude 10° 17:54:24 10° 216° (SW) 1,907 ? 48.8°
Maximum altitude 17:58:40 57° 137° (SE) 701 ? 48.5°
Drops below altitude 10° 18:03:01 10° 59° (ENE) 1,934 ? 48.2°
Sets 18:05:21 0° 56° (NE) 2,846 ? 48.1°
